AJ4AN North Port FL US current weather conditions

sailwx.info

Wind from 358 at 5 knots gusting 6

Air temperature 35.6° C
Dewpoint 25.4° C

Last reported at 2020-Aug-09 19:00 UTC.
Time now 2020-Aug-09 20:11 UTC

Location: N 27°04' W 082°10'.
View on Google Maps.

See reports from other nearby stations

  
Tides and Currents Weather Stations Pressure Air Temp Water Temp Dewpoint Dewpoint Depression Visibility Wind Speed Wind Dir Waves Ship Positions
date/time (UTC)wind fromknots sea level pressurealtimeterstation pressurevisibilityair tempwater tempwave heightnotes
2020-Aug-09 19:00 358 5 gusting 6 35.6
2020-Aug-09 18:50 004 2 gusting 5 35.6
2020-Aug-09 18:40 064 35.0
2020-Aug-09 18:31 356 34.4
2020-Aug-09 18:20 356 34.4
2020-Aug-09 18:10 356 33.9
2020-Aug-09 18:01 347 1 gusting 7 35.0
2020-Aug-09 17:50 081 3 gusting 3 35.6
2020-Aug-09 17:40 015 35.6
2020-Aug-09 17:30 085 35.0
2020-Aug-09 17:20 016 2 gusting 6 34.4
2020-Aug-09 17:11 075 35.0
2020-Aug-09 17:00 027 2 gusting 5 35.0
2020-Aug-09 16:50 002 34.4
2020-Aug-09 16:41 016 2 gusting 6 34.4
2020-Aug-09 16:31 019 34.4
2020-Aug-09 16:21 356 2 gusting 6 34.4
2020-Aug-09 16:10 125 34.4
2020-Aug-09 16:00 078 34.4
2020-Aug-09 15:50 063 33.9
2020-Aug-09 15:41 026 33.3
2020-Aug-09 15:31 021 32.8
2020-Aug-09 15:21 036 32.8
2020-Aug-09 15:11 334 0 gusting 5 32.8
2020-Aug-09 15:00 014 32.2
2020-Aug-09 14:50 030 32.2
2020-Aug-09 14:40 027 1 gusting 4 31.7
2020-Aug-09 14:30 022 31.1
2020-Aug-09 14:20 023 30.6
2020-Aug-09 14:10 040 2 gusting 4 30.6
2020-Aug-09 14:00 038 1 gusting 2 30.6
2020-Aug-09 13:50 079 30.6
2020-Aug-09 13:40 081 30.0
2020-Aug-09 13:30 074 30.0
2020-Aug-09 13:20 074 29.4
2020-Aug-09 13:10 074 29.4
2020-Aug-09 13:00 127 1 gusting 4 28.9
2020-Aug-09 12:50 083 28.9
2020-Aug-09 12:40 083 0 gusting 2 28.3
2020-Aug-09 12:30 092 27.8
2020-Aug-09 12:20 091 27.8
2020-Aug-09 12:11 091 27.2
2020-Aug-09 12:01 092 26.7
2020-Aug-09 11:50 092 26.1
2020-Aug-09 11:40 092 26.1
2020-Aug-09 11:30 092 25.6
2020-Aug-09 11:20 092 25.6
2020-Aug-09 11:10 092 25.6
2020-Aug-09 11:01 092 25.6
2020-Aug-09 10:51 089 25.6
2020-Aug-09 10:40 089 25.6
2020-Aug-09 10:30 089 25.6
2020-Aug-09 10:20 089 25.6
2020-Aug-09 10:10 089 25.6
2020-Aug-09 10:01 090 25.6
2020-Aug-09 09:50 090 25.6
2020-Aug-09 09:40 090 25.6
2020-Aug-09 09:31 091 25.6
2020-Aug-09 09:20 091 25.6
2020-Aug-09 09:10 091 25.6
2020-Aug-09 09:01 091 25.6
2020-Aug-09 08:50 091 25.6
2020-Aug-09 08:40 091 25.6
2020-Aug-09 08:30 091 25.6
2020-Aug-09 08:21 093 25.6
2020-Aug-09 08:10 093 25.6
2020-Aug-09 08:01 093 25.6
2020-Aug-09 07:51 093 25.6
2020-Aug-09 07:40 093 25.6
2020-Aug-09 07:30 093 25.6
2020-Aug-09 07:20 093 25.6
2020-Aug-09 07:11 093 25.6
2020-Aug-09 07:01 093 25.6
2020-Aug-09 06:51 097 26.1
2020-Aug-09 06:41 097 26.1
2020-Aug-09 06:31 097 26.1
2020-Aug-09 06:21 097 26.1
2020-Aug-09 06:11 097 26.1
2020-Aug-09 06:01 097 26.1
2020-Aug-09 05:51 097 26.1
2020-Aug-09 05:41 097 26.1
2020-Aug-09 05:31 097 26.1
2020-Aug-09 05:21 097 26.1
2020-Aug-09 05:11 102 26.1
2020-Aug-09 05:01 102 26.1
2020-Aug-09 04:51 102 26.1
2020-Aug-09 04:41 102 26.1
2020-Aug-09 04:31 102 26.1
2020-Aug-09 04:21 102 26.1
2020-Aug-09 04:11 102 26.1
2020-Aug-09 04:01 102 26.1
2020-Aug-09 03:51 104 26.1
2020-Aug-09 03:41 104 26.1
2020-Aug-09 03:31 105 26.1
2020-Aug-09 03:21 108 26.7
2020-Aug-09 03:11 108 26.7
2020-Aug-09 03:01 108 26.7
2020-Aug-09 02:51 107 26.7
2020-Aug-09 02:41 110 26.7
2020-Aug-09 02:31 110 26.7
2020-Aug-09 02:21 134 26.7
2020-Aug-09 02:11 134 26.7
2020-Aug-09 02:01 137 26.7
2020-Aug-09 01:51 153 27.2
2020-Aug-09 01:41 164 27.2
2020-Aug-09 01:31 164 27.2
2020-Aug-09 01:21 164 27.2
2020-Aug-09 01:11 177 27.8
2020-Aug-09 01:01 179 28.9
2020-Aug-09 00:51 179 1 gusting 8 28.9
2020-Aug-09 00:41 170 0 gusting 11 29.4
2020-Aug-09 00:31 128 6 gusting 12 30.0
2020-Aug-09 00:21 106 5 gusting 13 30.0
2020-Aug-09 00:11 193 2 gusting 7 31.1
2020-Aug-09 00:01 318 31.1
2020-Aug-08 23:51 318 31.7
2020-Aug-08 23:41 314 31.7
2020-Aug-08 23:31 309 32.2
2020-Aug-08 23:21 299 3 gusting 5 32.2
2020-Aug-08 23:11 321 32.8
2020-Aug-08 23:01 328 32.8
2020-Aug-08 22:51 330 33.3
2020-Aug-08 22:41 345 33.9
2020-Aug-08 22:31 345 34.4
2020-Aug-08 22:21 318 34.4
2020-Aug-08 22:11 317 35.0
2020-Aug-08 22:01 317 35.0
2020-Aug-08 21:51 177 35.0
2020-Aug-08 21:41 176 35.0
2020-Aug-08 21:31 254 34.4
2020-Aug-08 21:21 270 34.4
2020-Aug-08 21:11 268 35.0
2020-Aug-08 21:01 268 36.1
2020-Aug-08 20:51 158 35.6
2020-Aug-08 20:41 025 35.6
2020-Aug-08 20:31 064 0 gusting 4 36.1
2020-Aug-08 20:21 308 35.6
2020-Aug-08 20:11 316 3 gusting 3 35.0
2020-Aug-08 20:01 309 35.6
2020-Aug-08 19:51 052 35.0
2020-Aug-08 19:41 054 35.0
2020-Aug-08 19:31 027 36.1
2020-Aug-08 19:21 299 36.1
2020-Aug-08 19:11 017 36.1
2020-Aug-08 19:01 020 36.1
2020-Aug-08 18:51 130 36.1
2020-Aug-08 18:41 077 35.6
2020-Aug-08 18:31 093 35.6
2020-Aug-08 18:21 320 35.6
2020-Aug-08 18:11 321 35.0
2020-Aug-08 18:01 306 35.0
2020-Aug-08 17:51 322 0 gusting 3 35.0
2020-Aug-08 17:41 016 35.0
2020-Aug-08 17:31 008 34.4
2020-Aug-08 17:21 025 1 gusting 5 34.4
2020-Aug-08 17:11 345 34.4
2020-Aug-08 17:01 346 34.4
2020-Aug-08 16:51 345 34.4
2020-Aug-08 16:41 326 34.4
2020-Aug-08 16:31 269 34.4
2020-Aug-08 16:21 050 34.4
2020-Aug-08 16:11 018 33.9
2020-Aug-08 16:01 010 33.3
2020-Aug-08 15:51 010 32.8
2020-Aug-08 15:41 016 32.8
2020-Aug-08 15:31 014 32.8
2020-Aug-08 15:21 027 32.8
2020-Aug-08 15:11 027 32.2
2020-Aug-08 15:01 049 31.7
2020-Aug-08 14:51 051 31.1
2020-Aug-08 14:41 051 30.6
2020-Aug-08 14:31 041 2 gusting 3 30.0
2020-Aug-08 14:21 035 29.4
2020-Aug-08 14:11 036 28.9
2020-Aug-08 14:01 036 28.9
2020-Aug-08 13:51 036 28.3
2020-Aug-08 13:41 036 27.8
2020-Aug-08 13:31 038 27.2
2020-Aug-08 13:21 038 27.2
2020-Aug-08 13:11 039 27.2
2020-Aug-08 13:01 039 26.7
2020-Aug-08 12:51 039 26.1
2020-Aug-08 12:41 039 25.6
2020-Aug-08 12:31 039 25.6
2020-Aug-08 12:21 087 25.6
2020-Aug-08 12:11 087 25.0
2020-Aug-08 12:01 087 24.4
2020-Aug-08 11:51 087 23.9
2020-Aug-08 11:41 087 23.9
2020-Aug-08 11:31 087 23.3
2020-Aug-08 11:21 089 23.3
2020-Aug-08 11:11 089 23.3
2020-Aug-08 11:01 089 23.3
2020-Aug-08 10:51 089 23.3
2020-Aug-08 10:41 089 23.3
2020-Aug-08 10:31 091 23.3
2020-Aug-08 10:21 091 23.3
2020-Aug-08 10:11 091 23.3
2020-Aug-08 10:01 091 23.9
2020-Aug-08 09:51 091 23.9
2020-Aug-08 09:41 091 23.9
2020-Aug-08 09:31 091 23.9
2020-Aug-08 09:21 091 23.9
2020-Aug-08 09:11 091 23.9
2020-Aug-08 09:01 091 23.9
2020-Aug-08 08:51 092 23.9
2020-Aug-08 08:41 092 23.9
2020-Aug-08 08:31 092 23.9
2020-Aug-08 08:21 092 24.4
2020-Aug-08 08:11 092 24.4
2020-Aug-08 08:01 092 24.4
2020-Aug-08 07:51 092 24.4
2020-Aug-08 07:41 092 24.4
2020-Aug-08 07:31 093 24.4
2020-Aug-08 07:21 093 24.4
2020-Aug-08 07:11 093 24.4
2020-Aug-08 07:01 093 24.4
2020-Aug-08 06:51 093 24.4
2020-Aug-08 06:41 095 24.4
2020-Aug-08 06:31 095 25.0
2020-Aug-08 06:21 095 25.0
2020-Aug-08 06:11 097 25.0
2020-Aug-08 06:01 097 25.0
2020-Aug-08 05:51 097 25.0
2020-Aug-08 05:41 097 25.0
2020-Aug-08 05:31 097 25.0
2020-Aug-08 05:21 097 25.0
2020-Aug-08 05:11 097 25.0
2020-Aug-08 05:01 097 25.0
2020-Aug-08 04:51 097 25.0
2020-Aug-08 04:41 097 25.0
2020-Aug-08 04:31 102 25.0
2020-Aug-08 04:21 102 25.6
2020-Aug-08 04:11 102 25.6
2020-Aug-08 04:01 102 25.6
2020-Aug-08 03:51 103 25.6
2020-Aug-08 03:41 102 25.6
2020-Aug-08 03:31 102 25.6
2020-Aug-08 03:21 102 25.6
2020-Aug-08 03:11 102 26.1
2020-Aug-08 03:01 120 26.1
2020-Aug-08 02:51 139 26.1
2020-Aug-08 02:41 099 26.7
2020-Aug-08 02:31 056 26.7
2020-Aug-08 02:21 066 27.2
2020-Aug-08 02:11 083 1 gusting 4 27.2
2020-Aug-08 02:01 103 27.2
2020-Aug-08 01:51 104 27.8
2020-Aug-08 01:41 104 27.8
2020-Aug-08 01:31 104 28.3
2020-Aug-08 01:21 107 28.3
2020-Aug-08 01:11 107 28.3
2020-Aug-08 01:01 102 28.9
2020-Aug-08 00:51 102 28.9
2020-Aug-08 00:41 102 29.4
2020-Aug-08 00:30 128 29.4
2020-Aug-08 00:21 321 30.0
2020-Aug-08 00:11 315 30.6
2020-Aug-08 00:00 315 30.6
2020-Aug-07 23:51 308 31.1
2020-Aug-07 23:40 308 31.1
2020-Aug-07 23:31 308 31.1
2020-Aug-07 23:20 308 31.1
2020-Aug-07 23:11 285 31.1
2020-Aug-07 23:00 281 30.6
2020-Aug-07 22:50 293 30.6
2020-Aug-07 22:41 320 30.6
2020-Aug-07 22:30 320 30.0
2020-Aug-07 22:20 319 30.0
2020-Aug-07 22:11 318 30.0
2020-Aug-07 22:00 318 30.0
2020-Aug-07 21:51 314 30.0
2020-Aug-07 21:40 313 30.0
2020-Aug-07 21:30 312 30.0
2020-Aug-07 21:20 311 30.0
2020-Aug-07 21:10 311 30.0
2020-Aug-07 21:00 322 30.0
2020-Aug-07 20:50 345 29.4
2020-Aug-07 20:40 345 28.9
2020-Aug-07 20:30 345 28.9
2020-Aug-07 20:20 345 28.9
2020-Aug-07 20:11 345 28.3
2020-Aug-07 20:00 345 27.8